Tracking 19279 objects as of 13-Nov-2018
HD Live streaming from Space Station
objects crossing your sky now

MOLNIYA 3-47

Track MOLNIYA 3-47 now!
MOLNIYA 3-47 is classified as:


NORAD ID: 23642
Int'l Code: 1995-042A
Perigee: 1,404.9 km
Apogee: 38,733.9 km
Inclination: 63.1 °
Period: 713.1 minutes
Semi major axis: 26440 km
RCS: 13.479 m2 (large)
Launch date: August 9, 1995
Source: Commonwealth of Independent States (former USSR) (CIS)
Launch site: PLESETSK MISSILE AND SPACE COMPLEX (PKMTR)
aabbcc
Your satellite tracking list
Your tracking list is empty




NASA's NSSDC Master Catalog

Two Line Element Set (TLE):
1 23642U 95042A   18316.11194253 -.00000409 +00000-0 +43989-1 0  9990
2 23642 063.0763 223.0894 7059098 289.6981 010.9130 02.01930065170517
Source of the keplerian elements: AFSPC